{"data":{"norad_id":62610,"epoch":"2026-05-25T04:29:16.325664Z","epoch_age_seconds":69208,"freshness":"FRESH","line1":"1 62610U 25009B   26145.18699451  .00012303  00000+0  41321-3 0  9994","line2":"2 62610  97.4003 227.7428 0005986  45.8761 314.2972 15.30977110 75432","mean_motion":15.3097711,"eccentricity":0.0005986,"inclination_deg":97.4003,"raan_deg":227.7428,"arg_perigee_deg":45.8761,"mean_anomaly_deg":314.2972,"bstar":0.00041321,"rev_number":7543,"period_min":94.057578692342,"perigee_km":468.79471236483,"apogee_km":476.99676876183,"semimajor_km":6851.0327405633,"source":"CELESTRAK","updated_at":"2026-05-25T13:38:03.126285Z"}}